Regional Weather Roundup
Issued by NWS

Home | Current Version | Previous Version | Graphics & Text | Print | Product List | Glossary On
Versions: 1 2 3 4 5 6 7 8 9 10 11 12 13 14 15 16 17 18 19 20 21 22 23 24 25 26 27 28 29 30 31 32 33 34 35 36 37 38 39 40 41 42 43 44 45 46 47 48 49 50
000
ASUS43 KMKX 011121
RWRWI

WISCONSIN REGIONAL WEATHER ROUNDUP
NATIONAL WEATHER SERVICE MILWAUKEE/SULLIVAN WI
600 AM CDT WED JUL 01 2015

NOTE: "FAIR" INDICATES FEW OR NO CLOUDS BELOW 12,000 FEET WITH NO
SIGNIFICANT WEATHER AND/OR OBSTRUCTIONS TO VISIBILITY.

WIZ001-002-006>008-014>016-023>028-011200-
NORTHWEST WISCONSIN

CITY           SKY/WX    TMP DP  RH WIND       PRES   REMARKS
SUPERIOR ARPT  PTCLDY    43  43 100 CALM      30.01S FOG
ASHLAND        PTCLDY    42  42 100 CALM      30.02R FOG
HAYWARD        PTCLDY    43  42  97 CALM      30.01S
SIREN          PTCLDY    46  44  94 CALM      30.02R
CUMBERLAND     CLEAR     48  46  93 CALM      30.01S
RICE LAKE      CLEAR     47  46  95 CALM      30.03R
CHETEK         CLEAR     47  46  99 CALM      30.02R
LADYSMITH      CLEAR     44  43  95 CALM      30.03S
EAU CLAIRE     CLEAR     47  45  93 CALM      30.00R
MENOMONIE      PTCLDY    50  48  92 NE3       30.01R
NEW RICHMOND   MOCLDY    52  49  89 E5        29.99S
OSCEOLA        MOCLDY    54  52  92 E3        30.02S
$$

WIZ003>005-009-010-017-018-011200-
NORTH CENTRAL WISCONSIN

CITY           SKY/WX    TMP DP  RH WIND       PRES   REMARKS
MANITOWISH WTR MOCLDY    37  37 100 CALM      30.01S
ARBOR VITAE    FOG       40  38  95 CALM      30.02R VSB<1/4
WOODRUFF       FOG       40  38  95 CALM      30.02R VSB<1/4
RHINELANDER    CLEAR     43  40  89 CALM      30.01R
EAGLE RIVER    PTCLDY    38  38 100 CALM      30.01R FOG
LAND O LAKES   CLEAR     38  38 100 CALM      30.02R
PHILLIPS       PTCLDY    39  39 100 CALM      30.01R
TOMAHAWK       PTCLDY    34  33  96 CALM      30.01S
MEDFORD        PTCLDY    40  40  99 CALM      30.00S
MERRILL        PTCLDY    37  37  99 CALM      30.00F
$$

WIZ029-030-035-036-043>047-011200-
CENTRAL WISCONSIN

CITY           SKY/WX    TMP DP  RH WIND       PRES   REMARKS
WAUSAU         CLEAR     47  45  93 NW3       29.98S
MOSINEE        CLEAR     46  46 100 N7        30.00S
MARSHFIELD     PTCLDY    46  42  86 NW5       30.00R
STEVENS POINT  CLEAR     41  40  97 CALM      29.99S
WAUPACA        CLEAR     50  46  85 CALM      29.98S
WAUTOMA        CLEAR     47  47 100 CALM      29.98S
WISC RAPIDS    CLEAR     46  43  89 CALM      30.00R
CAMP DOUGLAS   FOG       41  41 100 W2        29.99R VSB<1/4
$$

WIZ011>013-019>022-031-037>040-048>050-011200-
NORTHEAST WISCONSIN

CITY           SKY/WX    TMP DP  RH WIND       PRES   REMARKS
ANTIGO         CLEAR     42  41  99 NW3       29.99S
SHAWANO        CLEAR     48  43  85 NW3       29.98R
OCONTO         CLOUDY    48  46  90 N5        29.97R
STURGEON BAY   CLOUDY    52  46  82 N9        29.98R
GREEN BAY      CLOUDY    50  46  86 N5        29.97R
MANITOWOC      CLOUDY    53  48  83 MISG      29.96R
APPLETON       PTCLDY    48  43  81 N7        29.97S
CLINTONVILLE   CLEAR     48  43  81 NW5       29.97S
OSHKOSH        CLEAR     52  43  71 N8        29.96S
$$

WIZ032>034-041-042-053>061-011200-
SOUTHWEST WISCONSIN

CITY           SKY/WX    TMP DP  RH WIND       PRES   REMARKS
LA CROSSE      MOCLDY    54  51  90 MISG      29.97S
SPARTA         PTCLDY    42  42  99 CALM      30.00R
VIROQUA        MOCLDY    51  51 100 E6        29.98S
BOSCOBEL       CLEAR     53  52  96 E5        29.96R
PRAIRIE DU CHI CLEAR     54  52  95 CALM      29.96R
PLATTEVILLE    CLEAR     55  54  95 NE6       29.95R
$$

WIZ056-057-062-063-064-067-068-011200-
SOUTH CENTRAL WISCONSIN

CITY           SKY/WX    TMP DP  RH WIND       PRES   REMARKS
REEDSBURG      PTCLDY    51  47  87 CALM      29.97S
BARABOO/DELLS  PTCLDY    50  46  85 CALM      29.98R
LONE ROCK      MOCLDY    55  50  83 CALM      29.97R
MINERAL POINT  CLOUDY    59  54  82 E3        29.96R
MADISON        CLOUDY    56  48  74 N7        29.96R
MIDDLETON      CLOUDY    56  49  75 N5        29.97R
WATERTOWN      CLOUDY    55  54  97 N7        29.95S
MONROE         CLOUDY    57  55  94 CALM      29.95R
JANESVILLE     CLOUDY    57  55  94 CALM      29.93F
$$

WIZ051-052-058>065-066-070>072-011200-
SOUTHEAST WISCONSIN

CITY           SKY/WX    TMP DP  RH WIND       PRES   REMARKS
MILWAUKEE      PTCLDY    55  49  80 NW6       29.96R
WAUKESHA       PTCLDY    52  50  93 N9        29.96R
MILWAUKEE/TIMM MOCLDY    52  45  76 N10       29.96S
RACINE         MOCLDY    52  49  89 N3        29.96S
BURLINGTON     CLOUDY    52  51  96 CALM      29.94S
KENOSHA        MOCLDY    53  50  89 CALM      29.95R
FOND DU LAC    CLEAR     50  45  83 NW7       29.97R
SHEBOYGAN      CLOUDY    51  46  83 NW7       29.96R
WEST BEND      CLEAR     50  45  81 NW3       29.97R
JUNEAU         PTCLDY    50  46  86 CALM      29.97S
$$

LSZ147-162-011200-
LAKE SUPERIOR

STATION/POSITION TIME  TEMP    WIND        PRES    WAVE
                       AIR SEA DIR/SP/G            HT/PER
                 (UTC) (F)     (DEG/KT/KT) (MB)    (FT/S)
W MID LAKE BUOY  1050   42 38  180/  6/  6 1016.9R   1/ 5
DEVILS ISLAND    1100   52     130/  6/  7 1016.9R
SAXON HARBOR     1040   43      CALM  /  3 1016.3R
$$

LMZ867-665-643>646-011200-
LAKE MICHIGAN

STATION/POSITION TIME  TEMP    WIND        PRES    WAVE
                       AIR SEA DIR/SP/G            HT/PER
                 (UTC) (F)     (DEG/KT/KT) (MB)    (FT/S)
CHAMBERS ISLAND  1000   52     330/ 11/ 13 1013.9R
N MID LAKE BUOY  1050   45 40  330/  8/ 10 1013.4R   2/ 4
NORTHPORT PIER   1000   52     340/ 16/ 18 1013.5R
SISTER BAY       1014   52     360/ 13/ 16   N/A
ALGOMA LAKESHORE 0910          340/  5/  8   N/A
KEWAUNEE LAKESHO 1000   54     330/  2/  4 1013.0R
SHEBOYGAN LAKESH 1100   52     300/  8/  9 1014.8R
PORT WASHINGTON  1000   53     330/  4/  8 1014.6S
ATWATER BUOY     1100   55     320/ 10/ 12 1015.5R
MILWAUKEE LAKESH 1100   55     330/  7/ 10   N/A
KENOSHA   LAKESH 1100   55     310/  5/  6 1014.2S
$$

TC  - TEMPERATURE IN CELSIUS
VSB - VISIBILITY IN STATUTE MILES
WCI - WIND CHILL INDEX
HX  - HEAT INDEX



USA.gov is the U.S. government's official web portal to all federal, state and local government web resources and services.